Change the Weather History Date:

Saturday, November 9, 2013

  Actual Average (VTBD) Record (VTBD)
Temperature  
Mean Temperature 84 °F -  
Max Temperature 92 °F 89 °F 95 °F (1996)
Min Temperature 75 °F 71 °F 69 °F (1998)
Cooling Degree Days 18    
Growing Degree Days 34 (Base 50)    
Moisture  
Dew Point 73 °F    
Average Humidity 72    
Maximum Humidity 93    
Minimum Humidity 50    
Precipitation  
Precipitation 0.00 in 0.06 in - ()
Sea Level Pressure  
Sea Level Pressure 29.79 in    
Wind  
Wind Speed 3 mph ()    
Max Wind Speed 10 mph    
Max Gust Speed -    
Visibility 6.1 miles    
Events      
Averages and records for this station are not official NWS values.
T = Trace of Precipitation, MM = Missing Value Source: Averaged Metar Reports

Daily Weather History Graph

Daily Weather History Graph

Search for Another Location

Airport or City:

Trip Planner

Search our weather history database for the weather conditions in past years. The results will help you decide how hot, cold, wet, or windy it might be!

Date:

Astronomy

Nov. 09, 2013 Rise Set
Actual Time 6:12 AM ICT 5:46 PM ICT
Civil Twilight 5:50 AM ICT 6:09 PM ICT
Nautical Twilight 5:24 AM ICT 6:34 PM ICT
Astronomical Twilight 4:59 AM ICT 7:00 PM ICT
Moon 11:32 AM ICT (11/9) 11:31 PM ICT (11/9)
Length of Visible Light 12h 18m
Length of Day
11h 34m
Waxing Crescent, 38% of the Moon is Illuminated
Nov 9
Waxing Crescent
Nov 10
First Quarter
Nov 17
Full
Nov 26
Last Quarter
Dec 3
New

Hourly Weather History & Observations

Time (ICT) Temp. Heat Index Dew Point Humidity Pressure Visibility Wind Dir Wind Speed Gust Speed Precip Events Conditions
12:00 AM 78.8 °F - 73.4 °F 83% 29.83 in 6.2 mi Calm Calm - N/A   Mostly Cloudy
12:30 AM 78.8 °F - 73.4 °F 83% 29.83 in 6.2 mi Calm Calm - N/A   Mostly Cloudy
1:00 AM 78 °F - 76 °F 92% 29.78 in 6 mi Calm Calm - -   Scattered Clouds
1:00 AM 78.8 °F - 73.4 °F 83% 29.80 in 6.2 mi Calm Calm - N/A   Mostly Cloudy
1:30 AM 78.8 °F - 73.4 °F 83% 29.80 in 6.2 mi NNE 5.8 mph - N/A   Mostly Cloudy
2:00 AM 77.0 °F - 73.4 °F 89% 29.80 in 6.2 mi NNE 3.5 mph - N/A   Mostly Cloudy
2:30 AM 77.0 °F - 73.4 °F 89% 29.80 in 6.2 mi Calm Calm - N/A   Mostly Cloudy
3:00 AM 77.0 °F - 73.4 °F 89% 29.80 in 6.2 mi Calm Calm - N/A   Scattered Clouds
3:30 AM 77.0 °F - 71.6 °F 83% 29.77 in 6.2 mi NNW 3.5 mph - N/A   Scattered Clouds
4:00 AM 77.0 °F - 73.4 °F 89% 29.77 in 6.2 mi North 4.6 mph - N/A   Scattered Clouds
4:30 AM 77.0 °F - 73.4 °F 89% 29.80 in 6.2 mi North 2.3 mph - N/A   Scattered Clouds
5:00 AM 77.0 °F - 73.4 °F 89% 29.80 in 6.2 mi NNE 3.5 mph - N/A   Mostly Cloudy
5:30 AM 77.0 °F - 73.4 °F 89% 29.80 in 6.2 mi North 2.3 mph - N/A   Mostly Cloudy
6:00 AM 78.8 °F - 73.4 °F 83% 29.80 in 6.2 mi NNE 2.3 mph - N/A   Mostly Cloudy
6:30 AM 78.8 °F - 73.4 °F 83% 29.80 in 5.6 mi NNE 4.6 mph - N/A   Mostly Cloudy
7:00 AM 78 °F - 76 °F 93% 29.79 in 6 mi Calm Calm - -   Scattered Clouds
7:00 AM 78.8 °F - 73.4 °F 83% 29.83 in 6.2 mi North 4.6 mph - N/A   Mostly Cloudy
7:30 AM 78.8 °F - 75.2 °F 89% 29.83 in 6.2 mi North 5.8 mph - N/A   Mostly Cloudy
8:00 AM 80.6 °F 85.4 °F 73.4 °F 79% 29.83 in 6.2 mi North 8.1 mph - N/A   Mostly Cloudy
8:30 AM 80.6 °F 85.4 °F 73.4 °F 79% 29.83 in 6.2 mi North 6.9 mph - N/A   Mostly Cloudy
9:00 AM 84.2 °F 90.9 °F 73.4 °F 70% 29.86 in 6.2 mi North 5.8 mph - N/A   Mostly Cloudy
9:30 AM 84.2 °F 90.9 °F 73.4 °F 70% 29.86 in 6.2 mi NE 6.9 mph - N/A   Mostly Cloudy
10:00 AM 86.0 °F 91.8 °F 71.6 °F 62% 29.86 in 6.2 mi NE 8.1 mph - N/A   Mostly Cloudy
10:30 AM 86.0 °F 93.4 °F 73.4 °F 66% 29.86 in 6.2 mi ENE 8.1 mph - N/A   Mostly Cloudy
11:00 AM 87.8 °F 93.8 °F 71.6 °F 58% 29.83 in 6.2 mi NE 5.8 mph - N/A   Mostly Cloudy
11:30 AM 87.8 °F 93.8 °F 71.6 °F 58% 29.83 in 6.2 mi East 5.8 mph - N/A   Mostly Cloudy
12:00 PM 87.8 °F 95.6 °F 73.4 °F 62% 29.80 in 6.2 mi ENE 4.6 mph - N/A   Mostly Cloudy
12:30 PM 89.6 °F 98.2 °F 73.4 °F 59% 29.80 in 6.2 mi NNE 4.6 mph - N/A   Mostly Cloudy
1:00 PM 92 °F - 75 °F 50% 29.77 in 5 mi East 3.5 mph - -   Haze
1:00 PM 89.6 °F 96.2 °F 71.6 °F 55% 29.77 in 6.2 mi Variable 4.6 mph - N/A   Mostly Cloudy
1:30 PM 91.4 °F 100.1 °F 73.4 °F 55% 29.77 in 6.2 mi Variable 4.6 mph - N/A   Mostly Cloudy
2:00 PM 91.4 °F 100.1 °F 73.4 °F 55% 29.77 in 6.2 mi NE 8.1 mph - N/A   Mostly Cloudy
2:30 PM 89.6 °F 96.2 °F 71.6 °F 55% 29.74 in 6.2 mi East 10.4 mph - N/A   Mostly Cloudy
3:00 PM 89.6 °F 96.2 °F 71.6 °F 55% 29.74 in 6.2 mi East 9.2 mph - N/A   Mostly Cloudy
3:30 PM 89.6 °F 96.2 °F 71.6 °F 55% 29.71 in 6.2 mi ENE 9.2 mph - N/A   Mostly Cloudy
4:00 PM 89.6 °F 96.2 °F 71.6 °F 55% 29.74 in 6.2 mi ENE 6.9 mph - N/A   Mostly Cloudy
4:30 PM 89.6 °F 98.2 °F 73.4 °F 59% 29.74 in 6.2 mi ENE 5.8 mph - N/A   Mostly Cloudy
5:00 PM 87.8 °F 93.8 °F 71.6 °F 58% 29.74 in 6.2 mi East 4.6 mph - N/A   Mostly Cloudy
5:30 PM 87.8 °F 95.6 °F 73.4 °F 62% 29.74 in 6.2 mi East 5.8 mph - N/A   Mostly Cloudy
6:00 PM 86.0 °F 93.4 °F 73.4 °F 66% 29.74 in 6.2 mi East 4.6 mph - N/A   Mostly Cloudy
6:30 PM 86.0 °F 93.4 °F 73.4 °F 66% 29.77 in 6.2 mi East 4.6 mph - N/A   Mostly Cloudy
7:00 PM 86 °F - 75 °F 64% 29.76 in 5 mi Calm Calm - -   Mist
7:00 PM 86.0 °F 93.4 °F 73.4 °F 66% 29.77 in 6.2 mi Variable 2.3 mph - N/A   Mostly Cloudy
7:30 PM 82.4 °F 88.2 °F 73.4 °F 74% 29.77 in 6.2 mi Variable 1.2 mph - N/A   Mostly Cloudy
8:00 PM 84.2 °F 90.9 °F 73.4 °F 70% 29.80 in 6.2 mi West 4.6 mph - N/A   Mostly Cloudy
8:30 PM 84.2 °F 92.3 °F 75.2 °F 74% 29.80 in 6.2 mi Calm Calm - N/A   Mostly Cloudy
9:00 PM 82.4 °F 88.2 °F 73.4 °F 74% 29.83 in 6.2 mi Calm Calm - N/A   Mostly Cloudy
9:30 PM 82.4 °F 88.2 °F 73.4 °F 74% 29.80 in 6.2 mi NE 3.5 mph - N/A   Mostly Cloudy
10:00 PM 80.6 °F 85.4 °F 73.4 °F 79% 29.80 in - NNE 4.6 mph - N/A   Clear
10:30 PM 80.6 °F 84.6 °F 71.6 °F 74% 29.80 in - NNE 5.8 mph - N/A   Clear
11:00 PM 80.6 °F 84.6 °F 71.6 °F 74% 29.83 in - North 3.5 mph - N/A   Clear
11:30 PM 80.6 °F 83.9 °F 69.8 °F 70% 29.80 in - Calm Calm - N/A   Clear